Location: Strawberry
(33.0916°N, 80.0306°W)
Time: 05:31:55
(UTC+00:00)

ISS - Visible Passes

Search period start: 28 November 2022 00:00
Search period end: 08 December 2022 00:00
Orbit: 411 x 420 km, 51.6° (Epoch: 28 November)

Date Brightness Start Highest point End Pass type
(mag) Time Alt. Az. Time Alt. Az. Time Alt. Az.
03 Dec -1.5 23:06:02 10° NNE 23:06:52 11° NNE 23:06:53 11° NNE visible
04 Dec -2.0 23:52:00 10° NNW 23:53:34 23° NNW 23:53:34 23° NNW visible
05 Dec -2.5 23:03:29 10° NNW 23:06:15 24° NE 23:07:35 18° ENE visible
06 Dec -0.5 00:40:06 10° WNW 00:40:32 13° WNW 00:40:32 13° WNW visible
06 Dec -3.1 23:50:53 10° NW 23:54:08 52° SW 23:54:59 39° S visible
07 Dec -3.9 23:01:57 10° NW 23:05:16 74° NE 23:08:33 10° SE visible
